Home   Weather   Ansbach   Past weeks

Flag for Germany Past Weather in Ansbach, Bavaria, Germany — Yesterday and Last 2 Weeks

Now
33 °F

Passing clouds.


Feels Like: 28 °F
Forecast: 32 / 45 °F
Wind: 5 mph from Southwest

Location: Ansbach / Katterbach

Current Time: Dec 9, 2016 at 7:03:56 am

Latest Report: Dec 9, 2016 at 5:58 am


Visibility: N/A

Pressure: 30.53 "Hg

Humidity: 79%

Dew Point: 27 °F

Location of AnsbachLocation

Past Weather in Ansbach — Graph

°F

Ansbach Temperature Yesterday

Maximum temperature yesterday: 38 °F (at 2:58 pm)
Minimum temperature yesterday: 24 °F (at 7:58 am)
Average temperature yesterday: 30 °F

High & Low Weather Summary for the Past Weeks

 TemperatureHumidityPressure
High47 °F (Nov 25, 2:58 pm)100% (Dec 2, 9:00 pm)30.69 "Hg (Dec 2, 9:00 pm)
Low19 °F (Nov 30, 5:58 am)51% (Nov 29, 1:58 pm)30.02 "Hg (Nov 26, 7:03 pm)
Average32 °F85%30.37 "Hg
* Reported Nov 24 4:04 am — Dec 9 4:58 am, Ansbach, Weather by CustomWeather, © 2016

Note: Actual official high and low records may vary slightly from our data, if they occured in-between our weather recording intervals... More about our weather records

Advertising

Ansbach Weather History for the Previous 24 Hours

Scroll right to see more
 ConditionsComfort  
Time TempWeatherWind HumidityBarometerVisibility
4:58 am
Fri, Dec 9
32 °FClear.5 mph80%30.52 "HgN/A
3:58 am33 °FClear.5 mph78%30.53 "HgN/A
2:58 am34 °FClear.9 mph75%30.52 "HgN/A
1:58 am33 °FClear.7 mph80%30.52 "HgN/A
12:58 am32 °FClear.3 mph85%30.53 "HgN/A
11:58 pm
Thu, Dec 8
33 °FClear.5 mph86%30.56 "HgN/A
10:58 pm33 °FPassing clouds.5 mph87%30.57 "HgN/A
9:58 pm35 °FPassing clouds.3 mph85%30.56 "HgN/A
8:58 pm34 °FOvercast.10 mph86%30.55 "HgN/A
7:58 pm33 °FClear.9 mph88%30.57 "HgN/A
6:58 pm33 °FClear.7 mph90%30.57 "HgN/A
5:58 pm33 °FClear.5 mph89%30.57 "HgN/A
4:58 pm34 °FPassing clouds.7 mph88%30.58 "HgN/A
3:58 pm37 °FSunny.7 mph85%30.57 "HgN/A
2:58 pm38 °FSunny.7 mph81%30.57 "HgN/A
1:58 pm37 °FSunny.7 mph83%30.58 "HgN/A
12:58 pm35 °FSunny.6 mph86%30.60 "HgN/A
11:58 am32 °FSunny.No wind93%30.64 "HgN/A
10:58 am29 °FSunny.No wind93%30.65 "HgN/A
9:58 am28 °FSunny.6 mph91%30.64 "HgN/A
8:58 am26 °FSunny.5 mph92%30.65 "HgN/A
7:58 am24 °FClear.3 mph91%30.66 "HgN/A
Weather by CustomWeather, © 2016

See weather overviewHow to use our weather pages